Simultaneous Nadir Overpasses (SNOs) Predictions

Prediction of SNOs between NPP and TERRA Satellite Orbit:

Table of predicted SNOs for the next 14.0 days since TLE Epoch: 8/10/2013
Index Date (NPP) Time (NPP) Lat,Lon (NPP) SZA (NPP ) Date (TERRA) Time (TERRA) Lat,Lon (TERRA) SZA (TERRA ) Distance(km) Time Diff (sec)
1 08/11/2013 18:22:42 69.16, -98.13 54.05 08/11/2013 18:23:50 69.03, -96.47 53.87 67.71 68
2 08/11/2013 19:13:10 -68.33, 70.30 126.80 08/11/2013 19:13:31 -68.31, 70.27 126.83 3.01 21
3 08/11/2013 20:03:54 68.19,-122.22 53.07 08/11/2013 20:02:58 68.20,-122.21 53.08 0.17 56
4 08/14/2013 10:39:27 68.43, 18.62 54.10 08/14/2013 10:40:31 68.41, 18.64 54.08 2.07 64
5 08/14/2013 11:30:08 -68.29,-173.89 126.02 08/14/2013 11:30:01 -68.31,-173.85 126.02 1.82 7
6 08/14/2013 12:20:45 67.78, -5.93 53.46 08/14/2013 12:19:34 67.85, -6.74 53.56 34.86 71
7 08/17/2013 02:56:24 68.39, 134.43 54.91 08/17/2013 02:57:00 68.39, 134.49 54.90 2.65 36
8 08/17/2013 03:47:05 -68.26, -58.08 125.22 08/17/2013 03:46:31 -68.24, -58.06 125.24 2.77 34
9 08/19/2013 18:22:46 -68.93, 82.18 123.69 08/19/2013 18:23:57 -68.82, 83.25 123.82 44.66 71
10 08/19/2013 19:13:21 68.31,-109.70 55.69 08/19/2013 19:13:31 68.31,-109.73 55.69 1.15 10
11 08/19/2013 20:04:03 -68.23, 57.72 124.38 08/19/2013 20:03:01 -68.21, 57.79 124.40 3.35 62
12 08/22/2013 10:39:35 -68.42,-161.38 123.33 08/22/2013 10:40:34 -68.40,-161.39 123.35 2.30 59
13 08/22/2013 11:30:19 68.29, 6.10
